EW8073 Weather Reports


time (UTC)temp
F
wind
direction
speed
knots
gust
knots
rain 1hr
in
rain 24hr
in
rain mn
in
humidity
%
barometer
mb
20260502203201 73 256 0.0 1.7 0.00 0.00 0.00 14 1017.8
20260502202148 74 245 0.0 0.9 0.00 0.00 0.00 11 1017.9
20260502201136 73 277 0.0 1.7 0.00 0.00 0.00 14 1018.0
20260502200630 73 288 0.0 1.7 0.00 0.00 0.00 11 1018.0
20260502200124 71 294 0.9 6.1 0.00 0.00 0.00 11 1018.0
20260502195621 71 294 0.9 6.1 0.00 0.00 0.00 11 1018.1
20260502195119 72 263 0.0 1.7 0.00 0.00 0.00 12 1018.1
20260502194620 72 190 0.0 2.6 0.00 0.00 0.00 13 1018.2
20260502194117 72 237 0.0 2.6 0.00 0.00 0.00 12 1018.2
20260502193617 71 275 0.0 2.6 0.00 0.00 0.00 15 1018.3
20260502193118 71 276 0.0 2.6 0.00 0.00 0.00 17 1018.5
20260502192615 69 278 0.0 1.7 0.00 0.00 0.00 15 1018.6
20260502192114 69 279 0.0 1.7 0.00 0.00 0.00 15 1018.6
20260502191116 69 243 0.0 1.7 0.00 0.00 0.00 17 1018.7
20260502190616 69 243 0.0 1.7 0.00 0.00 0.00 16 1018.8
20260502190114 69 244 0.0 1.7 0.00 0.00 0.00 16 1018.9
20260502185114 68 244 0.0 3.5 0.00 0.00 0.00 16 1019.2
20260502184610 67 248 0.0 3.5 0.00 0.00 0.00 16 1019.2
20260502184109 67 257 0.0 3.5 0.00 0.00 0.00 17 1019.3
20260502183109 67 0 0.0 3.5 0.00 0.00 0.00 16 1019.3
20260502182609 67 5 0.0 3.5 0.00 0.00 0.00 16 1019.5
20260502182109 67 49 0.0 2.6 0.00 0.00 0.00 16 1019.6
20260502181609 67 76 0.0 0.9 0.00 0.00 0.00 17 1019.6
20260502181110 66 78 0.0 2.6 0.00 0.00 0.00 17 1019.7
20260502180609 66 78 0.0 2.6 0.00 0.00 0.00 18 1019.9
20260502180110 66 65 0.0 1.7 0.00 0.00 0.00 18 1020.0
20260502164018 62 128 0.0 3.5 0.00 0.00 0.00 23 1020.6
20260502163512 61 145 0.0 1.7 0.00 0.00 0.00 24 1020.6
20260502163008 61 250 0.0 1.7 0.00 0.00 0.00 26 1020.6
20260502162501 60 250 0.0 0.0 0.00 0.00 0.00 26 1020.6
20260502161954 60 251 0.0 0.0 0.00 0.00 0.00 25 1020.6
20260502161448 60 249 0.0 0.0 0.00 0.00 0.00 26 1020.6
20260502160942 59 249 0.0 1.7 0.00 0.00 0.00 27 1020.7
20260502160438 59 249 0.0 1.7 0.00 0.00 0.00 28 1020.7
20260502151842 55 245 0.0 0.9 0.00 0.00 0.00 33 1021.0
20260502151337 55 244 0.0 0.9 0.00 0.00 0.00 34 1021.1
20260502150326 54 244 0.0 0.0 0.00 0.00 0.00 35 1021.1
20260502130607 37 0 0.0 0.0 0.00 0.00 0.00 62 1021.3
20260502123530 36 93 0.0 0.0 0.00 0.00 0.00 60 1021.1
20260502123033 36 93 0.0 0.0 0.00 0.00 0.00 60 1021.0
20260502122519 37 93 0.0 0.0 0.00 0.00 0.00 60 1021.0
20260502121511 37 93 0.0 0.0 0.00 0.00 0.00 59 1020.8
20260502121011 37 93 0.0 0.0 0.00 0.00 0.00 59 1020.8
20260502120510 37 93 0.0 0.0 0.00 0.00 0.00 59 1020.8
20260502115006 37 93 0.0 0.0 0.00 0.00 0.00 58 1020.8
20260502112503 38 93 0.0 0.0 0.00 0.00 0.00 57 1020.6
20260502112002 38 93 0.0 0.0 0.00 0.00 0.00 56 1020.6
20260502111458 38 93 0.0 0.0 0.00 0.00 0.00 56 1020.7
20260502110959 38 93 0.0 0.0 0.00 0.00 0.00 56 1020.7
20260502105958 39 93 0.0 0.0 0.00 0.00 0.00 56 1020.6
20260502105459 39 93 0.0 0.0 0.00 0.00 0.00 56 1020.7
20260502104957 39 93 0.0 0.0 0.00 0.00 0.00 56 1020.7
20260502104459 39 93 0.0 0.0 0.00 0.00 0.00 56 1020.6
20260502103955 39 93 0.0 0.0 0.00 0.00 0.00 56 1020.6
20260502103454 40 93 0.0 0.0 0.00 0.00 0.00 56 1020.7
20260502102952 40 93 0.0 0.0 0.00 0.00 0.00 56 1020.7
20260502102451 40 93 0.0 0.0 0.00 0.00 0.00 56 1020.7
20260502101949 40 93 0.0 0.0 0.00 0.00 0.00 56 1020.7
20260502100948 40 93 0.0 0.0 0.00 0.00 0.00 55 1020.6
20260502100447 40 93 0.0 0.0 0.00 0.00 0.00 55 1020.4
20260502091440 42 92 0.0 0.0 0.00 0.00 0.00 54 1020.1
20260502090942 42 91 0.0 0.0 0.00 0.00 0.00 54 1020.1
20260502090440 42 91 0.0 0.0 0.00 0.00 0.00 54 1020.0
20260502071426 44 90 0.0 0.0 0.00 0.00 0.00 40 1020.2
20260502070925 45 90 0.0 0.0 0.00 0.00 0.00 39 1020.3
20260502070422 45 90 0.0 0.0 0.00 0.00 0.00 39 1020.3
20260502065422 46 90 0.0 0.0 0.00 0.00 0.00 38 1020.4
20260502064920 46 90 0.0 0.0 0.00 0.00 0.00 38 1020.4
20260502064422 46 90 0.0 0.0 0.00 0.00 0.00 37 1020.4
20260502063415 47 90 0.0 0.0 0.00 0.00 0.00 37 1020.4
20260502062407 47 90 0.0 0.0 0.00 0.00 0.00 37 1020.4
20260502061903 47 90 0.0 0.0 0.00 0.00 0.00 37 1020.6
20260502061355 47 90 0.0 0.0 0.00 0.00 0.00 37 1020.4
20260502060850 47 90 0.0 0.0 0.00 0.00 0.00 36 1020.6
20260502060351 47 90 0.0 0.0 0.00 0.00 0.00 36 1020.4
20260502055849 47 90 0.0 0.0 0.00 0.00 0.00 36 1020.4
20260502055347 47 90 0.0 0.0 0.00 0.00 0.00 36 1020.4
20260502054847 47 90 0.0 0.0 0.00 0.00 0.00 36 1020.3
20260502054346 47 90 0.0 0.9 0.00 0.00 0.00 37 1020.3
20260502053846 47 84 0.0 0.9 0.00 0.00 0.00 36 1020.2
20260502053348 47 84 0.0 0.0 0.00 0.00 0.00 36 1020.2
20260502052844 47 84 0.0 0.0 0.00 0.00 0.00 35 1020.1
20260502052343 47 84 0.0 0.0 0.00 0.00 0.00 34 1020.1
20260502051843 48 84 0.0 0.0 0.00 0.00 0.00 34 1020.1
20260502051342 48 84 0.0 0.0 0.00 0.00 0.00 34 1020.1
20260502050841 48 84 0.0 0.0 0.00 0.00 0.00 34 1020.0
20260502050342 48 84 0.0 0.0 0.00 0.00 0.00 33 1020.1
20260502045840 48 84 0.0 0.0 0.00 0.00 0.00 34 1020.0
20260502045341 49 84 0.0 0.0 0.00 0.00 0.00 33 1020.1
20260502044341 49 84 0.0 0.0 0.00 0.00 0.00 33 1020.0
20260502043838 49 84 0.0 0.0 0.00 0.00 0.00 32 1020.0
20260502043340 49 84 0.0 0.0 0.00 0.00 0.00 32 1020.0
20260502042838 49 84 0.0 0.0 0.00 0.00 0.00 32 1019.9
20260502042338 50 84 0.0 0.0 0.00 0.00 0.00 32 1019.9
20260502041838 50 84 0.0 0.0 0.00 0.00 0.00 32 1019.9
20260502040335 50 84 0.0 0.0 0.00 0.00 0.00 31 1019.7
20260502035835 50 84 0.0 0.0 0.00 0.00 0.00 30 1019.6
20260502035334 51 84 0.0 0.0 0.00 0.00 0.00 30 1019.6
20260502034834 51 84 0.0 0.0 0.00 0.00 0.00 30 1019.6
20260502034334 51 84 0.0 0.0 0.00 0.00 0.00 30 1019.5
20260502033836 51 84 0.0 0.0 0.00 0.00 0.00 29 1019.4
20260502033335 51 84 0.0 0.0 0.00 0.00 0.00 29 1019.3
20260502032834 52 84 0.0 0.0 0.00 0.00 0.00 29 1019.3
20260502032336 52 84 0.0 0.0 0.00 0.00 0.00 28 1019.2
20260502031834 52 84 0.0 0.0 0.00 0.00 0.00 28 1019.0
20260502031330 53 84 0.0 0.0 0.00 0.00 0.00 27 1019.0
20260502030830 53 84 0.0 0.0 0.00 0.00 0.00 27 1018.9
20260502025832 54 84 0.0 0.0 0.00 0.00 0.00 26 1018.8
20260502025331 54 84 0.0 0.0 0.00 0.00 0.00 26 1018.7
20260502024830 55 84 0.0 0.0 0.00 0.00 0.00 26 1018.6
20260502024327 55 84 0.0 0.0 0.00 0.00 0.00 26 1018.5
20260502023826 56 86 0.0 0.0 0.00 0.00 0.00 25 1018.5
20260502023324 56 89 0.0 0.0 0.00 0.00 0.00 25 1018.3
20260502022825 56 86 0.0 0.0 0.00 0.00 0.00 24 1018.3
20260502022322 57 0 0.0 0.0 0.00 0.00 0.00 24 1018.2
20260502021822 57 0 0.0 0.0 0.00 0.00 0.00 24 1018.1
20260502021322 58 0 0.0 0.0 0.00 0.00 0.00 23 1018.1
20260502020820 58 86 0.0 0.0 0.00 0.00 0.00 23 1018.0
20260502015819 59 86 0.0 0.0 0.00 0.00 0.00 23 1017.9
20260502015319 59 0 0.0 0.0 0.00 0.00 0.00 23 1017.9
20260502014820 59 86 0.0 0.0 0.00 0.00 0.00 22 1017.9
20260502014315 60 86 0.0 0.0 0.00 0.00 0.00 22 1017.8
20260502013807 60 84 0.0 0.0 0.00 0.00 0.00 22 1017.8
20260502012754 60 87 0.0 2.6 0.00 0.00 0.00 21 1017.6
20260502011742 61 86 0.0 0.0 0.00 0.00 0.00 21 1017.4
20260502011236 61 86 0.0 0.9 0.00 0.00 0.00 20 1017.4
20260502010731 61 86 0.0 1.7 0.00 0.00 0.00 20 1017.3
20260502010225 61 86 0.0 1.7 0.00 0.00 0.00 20 1017.3
20260502005719 61 88 0.0 0.0 0.00 0.00 0.00 20 1017.3
20260502005212 61 88 0.0 2.6 0.00 0.00 0.00 20 1017.2
20260502004200 61 53 0.0 0.9 0.00 0.00 0.00 19 1017.2
20260502003148 62 54 0.0 0.0 0.00 0.00 0.00 19 1017.2
20260502002137 63 52 0.0 0.0 0.00 0.00 0.00 19 1017.2
20260502001630 63 94 0.0 3.5 0.00 0.00 0.00 18 1017.2
20260502001124 64 71 0.0 3.5 0.00 0.00 0.00 18 1017.2
20260502000619 65 89 0.0 1.7 0.00 0.00 0.00 18 1017.1
20260502000112 65 323 0.0 2.6 0.00 0.00 0.00 17 1016.9
20260501235100 65 320 0.9 3.5 0.00 0.00 0.00 16 1016.9
20260501234554 65 305 0.0 3.5 0.00 0.00 0.00 16 1017.1
20260501233542 65 333 0.0 5.2 0.00 0.00 0.00 16 1017.1
20260501232531 65 323 0.0 4.3 0.00 0.00 0.00 17 1016.9
20260501232024 64 316 0.9 5.2 0.00 0.00 0.00 16 1017.1
20260501231012 66 80 0.9 5.2 0.00 0.00 0.00 16 1017.1
20260501230506 65 59 0.9 7.0 0.00 0.00 0.00 16 1016.9
20260501230000 65 38 0.9 7.0 0.00 0.00 0.00 16 1016.8
20260501225454 65 61 0.9 5.2 0.00 0.00 0.00 16 1016.9
20260501224949 65 329 0.9 5.2 0.00 0.00 0.00 15 1016.9
20260501223937 65 0 0.9 7.0 0.00 0.00 0.00 16 1017.1
20260501223430 65 0 0.9 7.8 0.00 0.00 0.00 15 1017.2
20260501222924 65 315 0.0 7.8 0.00 0.00 0.00 16 1016.9
20260501222418 65 327 0.0 3.5 0.00 0.00 0.00 16 1017.2
20260501221913 65 319 0.0 4.3 0.00 0.00 0.00 16 1017.2
20260501221406 65 70 0.0 4.3 0.00 0.00 0.00 17 1017.3
20260501220901 65 134 0.0 2.6 0.00 0.00 0.00 17 1017.2
20260501220354 65 90 0.0 2.6 0.00 0.00 0.00 16 1017.2
20260501215849 64 81 0.0 0.0 0.00 0.00 0.00 17 1017.4
20260501214837 65 342 0.0 1.7 0.00 0.00 0.00 16 1017.6
20260501212813 67 119 0.0 0.0 0.00 0.00 0.00 16 1017.9
20260501212306 66 343 0.0 0.0 0.00 0.00 0.00 19 1017.9
20260501211800 65 343 0.0 0.0 0.00 0.00 0.00 19 1018.0
20260501210243 64 349 0.0 2.6 0.00 0.00 0.00 18 1018.2
20260501205737 63 350 0.0 1.7 0.00 0.00 0.00 19 1018.3
20260501205232 64 96 0.0 4.3 0.00 0.00 0.00 19 1018.3
20260501204725 64 338 0.0 4.3 0.00 0.00 0.00 19 1018.2
20260501204220 63 54 0.0 0.0 0.00 0.00 0.00 20 1018.2
20260501203713 64 67 0.0 0.9 0.00 0.00 0.00 21 1018.3